Regional Weather Roundup
Issued by NWS

Home | Current Version | Previous Version | Graphics & Text | Print | Product List | Glossary On
Versions: 1 2 3 4 5 6 7 8 9 10 11 12 13 14 15 16 17 18 19 20 21 22 23 24 25 26 27 28 29 30 31 32 33 34 35 36 37 38 39 40 41 42 43 44 45 46 47 48 49 50
000
ASUS45 KTFX 311219
RWRMT
MONTANA HOURLY WEATHER ROUNDUP
NATIONAL WEATHER SERVICE GREAT FALLS MT
619 AM MDT THU JUL 31 2014

NOTE: "FAIR" INDICATES FEW OR NO CLOUDS BELOW 12000 FEET WITH NO
SIGNIFICANT WEATHER AND/OR OBSTRUCTIONS TO VISIBILITY.

* THESE STATIONS ARE NOT UNDER NWS QUALITY CONTROL. THEY DO NOT
   REPORT WEATHER SUCH AS PRECIPITATION OR FOG.

MTZ001>007-043-311300-
WEST OF THE DIVIDE
CITY           SKY/WX    TMP DP  RH WIND       PRES   REMARKS
KALISPELL      PTCLDY    54  48  80 NW5       30.13R
MISSOULA       PTCLDY    61  45  56 CALM      30.17R
BUTTE          CLEAR     46  41  83 CALM      30.30F
MULLAN PASS    CLEAR     68  36  31 NW5       30.30S
* ESSEX        N/A       53  46  77 SE3        N/A
* LINCOLN      N/A       45  44  96 N1         N/A
* LOOKOUT PASS N/A       61  42  50 S1         N/A
* POLSON       N/A       60  42  52 N/A        N/A
* RONAN APT    CLEAR     54  48  80 N/A        N/A
* SEELEY LAKE  N/A       45  41  86 N2         N/A
* THOMP F APT  CLEAR     51  41  69 NE3G9      N/A
* YAAK HILL    N/A       60  48  65 S1         N/A
$$

MTZ008-052>055-311300-
SOUTHWEST MONTANA
CITY           SKY/WX    TMP DP  RH WIND       PRES   REMARKS
BOZEMAN        PTCLDY    54  43  67 S3        30.24S
DILLON         CLEAR     54  45  72 S8        30.28S
W YELLOWSTONE  PTCLDY    37  36  96 CALM      30.39S
* THREE FORKS  PTCLDY    50  50 100 N/A        N/A
* BOULDER HILL N/A       57  39  51 S9         N/A
* MONIDA PASS  N/A       46  45  96 SW6        N/A
* RAYNOLDS PAS N/A       46  34  63 SW1        N/A
* WHITEHALL    N/A       53  42  66 N7         N/A
* WISE RIVER   N/A       46  43  89 SW2        N/A
$$

MTZ009>010-012-014-046-048-049-054-311300-
EAST SLOPES AND CENTRAL MONTANA
CITY           SKY/WX    TMP DP  RH WIND       PRES   REMARKS
CUT BANK       CLEAR     57  43  60 N3        30.15R
GREAT FALLS    CLEAR     61  43  52 S12       30.14R
HELENA         CLEAR     61  45  56 CALM      30.19R
MALMSTROM AFB  CLEAR     59  46  62 S6        30.15R
* CONRAD       CLEAR     54  48  80 N/A        N/A
* DEARBORN     N/A       55  47  75 S2         N/A
* MONARCH      N/A       53  37  55 SW1G6      N/A
* PENDROY      N/A       61  46  58 NW8        N/A
* ROGERS PASS  N/A       61  41  48 NW3        N/A
* SAINT MARY   N/A       44  40  86 SE3        N/A
* SWEET GRASS  N/A       65  41  42 W9         N/A
* WHITE SULPH  N/A       52  37  57 E4G12      N/A
$$

MTZ011-013-016-021-035-040-045-047-050-051-311300-
NORTH CENTRAL MONTANA
CITY           SKY/WX    TMP DP  RH WIND       PRES   REMARKS
HAVRE          CLEAR     57  45  64 VRB3      30.05S
LEWISTOWN      PTCLDY    59  39  48 S7        30.16S
* FORT BENTON  CLEAR     63  45  52 SW5       30.11R
* CHESTER      N/A       57  43  60 S1         N/A
* DENTON       N/A       59  45  60 E2         N/A
* GEYSER       N/A       59  44  58 SW5        N/A
* JUDITH GAP   N/A       58  41  53 N/A        N/A
* LOMA         N/A       65  44  47 W10        N/A
$$

MTZ017>020-022>027-061-062-311300-
NORTHEAST MONTANA
CITY           SKY/WX    TMP DP  RH WIND       PRES   REMARKS
GLASGOW        PTCLDY    66  46  49 SE16      30.05F
GLENDIVE       PTCLDY    61  50  67 S10       30.15F
JORDAN         PTCLDY    70  41  35 NE14      30.08R
SIDNEY         MOCLDY    63  55  75 SW8       30.09S
WOLF POINT     PTCLDY    68  48  49 S5        30.08R
* BEAVER HILL  N/A       64  51  63 E15        N/A
* CIRCLE       N/A       65  51  61 SE2G8      N/A
* LINDSAY DVD  N/A       56  50  80 SE9        N/A
$$

MTZ028>042-056>058-311300-
SOUTHCENTRAL AND SOUTHEAST MONTANA
CITY           SKY/WX    TMP DP  RH WIND       PRES   REMARKS
BAKER          PTCLDY    54  50  86 SE5       30.19R
BILLINGS       PTCLDY    64  39  40 SW10      30.14R
LIVINGSTON     PTCLDY    54  39  57 NW7       30.22R
MILES CITY     CLEAR     63  48  58 NE8       30.11R
* LAUREL APT   PTCLDY    55  37  51 N/A        N/A
* ROUNDUP APT  PTCLDY    57  36  46 SW14       N/A
* ALZADA       N/A       54  46  74 N/A        N/A
* HYSHAM       N/A       74  38  27 W3G9       N/A
* LAME DEER    N/A       66  37  34 S9         N/A
* REED POINT   N/A       50  41  71 N/A        N/A
* ROSCOE HILL  N/A       62  30  30 SE10       N/A
$$

REGIONAL REPORTS...DAKOTAS
CITY           SKY/WX    TMP DP  RH WIND       PRES   REMARKS
WILLISTON      CLOUDY    63  61  93 CALM      30.09R
DICKINSON      MOCLDY    57  54  90 S6        30.13R
CROSBY         N/A       57  57 100 SE5       30.08F
WATFORD CITY   CLEAR     59  57  93 CALM      30.08F
BISMARCK       PTCLDY    55  54  96 CALM      30.10S
GRAND FORKS    FAIR      59  57  93 W7        30.03S
FARGO          PTCLDY    55  54  96 CALM      30.04S
BUFFALO SD     CLEAR     57  50  78 N14       30.11R
RAPID CITY     CLEAR     57  46  67 NW10      30.17R
$$

REGIONAL REPORTS...WYOMING/IDAHO/WASHINGTON
CITY           SKY/WX    TMP DP  RH WIND       PRES   REMARKS
GILLETTE       CLEAR     57  43  60 VRB6      30.22S
SHERIDAN       PTCLDY    48  43  83 CALM      30.18S
YELLOWSTONE LA PTCLDY    39  37  93 CALM      30.47S
SALMON         PTCLDY    52  45  77 CALM      30.26R
MULLAN PASS    CLEAR     68  36  31 NW5       30.30S
SAND POINT     CLEAR     54  54 100 CALM      30.06R
SPOKANE        FAIR      70  43  38 SE9       30.04S
$$

REGIONAL REPORTS...ALBERTA
CITY           SKY/WX    TMP DP  RH WIND       PRES   REMARKS
CALGARY        FAIR      61  45  56 N16       30.12R
LETHBRIDGE     CLOUDY    52  46  80 SW9       30.09R
EDMONTON       MOCLDY    61  57  87 N8        30.10R
WATERTON GATE  N/A       57  45  64 S5         N/A
CARDSTON       N/A       50  46  86 SE6        N/A
MILK RIVER     N/A       55  45  69 NW7        N/A
$$

REGIONAL REPORTS...SASKATCHEWAN
CITY           SKY/WX    TMP DP  RH WIND       PRES   REMARKS
SWIFT CURRENT  CLEAR     57  54  90 S9        30.03S
MOOSE JAW      PTCLDY    57  55  93 E6        30.06R
REGINA         PTCLDY    61  55  81 SE10      30.07S
VAL MARIE      N/A       59  50  72 SW5        N/A
ASSINIBOIA     N/A       61  54  78 SE5        N/A
CORONACH       N/A       61  54  78 SE10       N/A

$$




USA.gov is the U.S. government's official web portal to all federal, state and local government web resources and services.